Quantico, VA

8:50 AM EDT on May 24, 2017 (GMT -0400)
Quantico Marine Corps Air Facility

Weather History for KNYG - December, 2012

Change the Weather History Date:

Saturday, December 15, 2012

  Actual Average Record
Temperature  
Mean Temperature 41 °F -  
Max Temperature 50 °F 45 °F 69 °F (2015)
Min Temperature 32 °F 30 °F 14 °F (2010)
Degree Days  
Heating Degree Days 24    
Moisture  
Dew Point 33 °F    
Average Humidity 73    
Maximum Humidity 89    
Minimum Humidity 54    
Precipitation  
Precipitation 0.02 in - - ()
Sea Level Pressure  
Sea Level Pressure 30.24 in    
Wind  
Wind Speed 4 mph (West)    
Max Wind Speed 9 mph    
Max Gust Speed -    
Visibility 10 miles    
Events Rain    
Averages and records for this station are not official NWS values.
T = Trace of Precipitation, MM = Missing Value Source: NWS Daily Summary

Daily Weather History Graph

Daily Weather History Graph

Search for Another Location

Airport or City:

Trip Planner

Search our weather history database for the weather conditions in past years. The results will help you decide how hot, cold, wet, or windy it might be!

Date:

Astronomy

Dec. 15, 2012 Rise Set
Actual Time 7:19 AM EST 4:49 PM EST
Civil Twilight 6:50 AM EST 5:19 PM EST
Nautical Twilight 6:16 AM EST 5:52 PM EST
Astronomical Twilight 5:44 AM EST 6:24 PM EST
Moon 9:12 AM EST (12/15) 7:49 PM EST (12/15)
Length of Visible Light 10h 29m
Length of Day
9h 29m
Waxing Crescent, 8% of the Moon is Illuminated
Dec 15
Waxing Crescent
Dec 20
First Quarter
Dec 28
Full
Jan 4
Last Quarter
Jan 11
New

Hourly Weather History & Observations

Time (EST) Temp. Windchill Dew Point Humidity Pressure Visibility Wind Dir Wind Speed Gust Speed Precip Events Conditions
12:56 AM 33.1 °F 27.7 °F 28.0 °F 82% 30.27 in 10.0 mi WNW 5.8 mph - N/A   Clear
1:56 AM 33.1 °F 26.9 °F 28.0 °F 82% 30.27 in 10.0 mi NW 6.9 mph - N/A   Clear
2:56 AM 32.0 °F 26.4 °F 28.0 °F 85% 30.28 in 10.0 mi NW 5.8 mph - N/A   Clear
3:56 AM 32.0 °F 27.5 °F 28.0 °F 85% 30.26 in 10.0 mi NW 4.6 mph - N/A   Clear
4:56 AM 33.1 °F 30.0 °F 28.0 °F 82% 30.27 in 10.0 mi NW 3.5 mph - N/A   Clear
5:56 AM 33.1 °F 27.7 °F 28.9 °F 85% 30.27 in 10.0 mi NW 5.8 mph - N/A   Clear
6:56 AM 33.1 °F 27.7 °F 28.0 °F 82% 30.29 in 10.0 mi NW 5.8 mph - N/A   Clear
7:56 AM 33.1 °F 28.7 °F 28.0 °F 82% 30.30 in 10.0 mi WNW 4.6 mph - N/A   Clear
8:56 AM 36.0 °F - 30.0 °F 79% 30.31 in 10.0 mi Calm Calm - N/A   Clear
9:56 AM 43.0 °F - 35.1 °F 74% 30.32 in 10.0 mi Calm Calm - N/A   Clear
10:56 AM 45.0 °F 43.5 °F 34.0 °F 65% 30.30 in 10.0 mi NE 3.5 mph - N/A   Clear
11:56 AM 46.9 °F - 35.1 °F 63% 30.27 in 10.0 mi Calm Calm - N/A   Clear
12:56 PM 48.9 °F - 33.1 °F 54% 30.26 in 10.0 mi SSW 3.5 mph - N/A   Clear
1:56 PM 50.0 °F - 34.0 °F 54% 30.22 in 10.0 mi Calm Calm - N/A   Clear
2:56 PM 48.9 °F - 37.0 °F 64% 30.21 in 10.0 mi Calm Calm - N/A   Clear
3:56 PM 48.9 °F - 37.0 °F 64% 30.20 in 10.0 mi ENE 3.5 mph - N/A   Clear
4:56 PM 48.9 °F - 36.0 °F 61% 30.19 in 10.0 mi SSE 9.2 mph - N/A   Clear
5:56 PM 48.0 °F - 37.0 °F 66% 30.20 in 10.0 mi South 9.2 mph - N/A   Clear
6:56 PM 46.9 °F - 37.9 °F 71% 30.19 in 10.0 mi South 4.6 mph - N/A   Partly Cloudy
7:56 PM 46.9 °F - 37.9 °F 71% 30.17 in 10.0 mi SSE 4.6 mph - N/A   Mostly Cloudy
8:56 PM 46.9 °F - 37.0 °F 68% 30.17 in 10.0 mi South 6.9 mph - N/A   Mostly Cloudy
9:56 PM 46.9 °F - 39.0 °F 74% 30.16 in 10.0 mi South 4.6 mph - 0.02 in Rain Light Rain
10:56 PM 45.0 °F - 37.9 °F 76% 30.15 in 10.0 mi Calm Calm - 0.00 in Rain Light Rain
11:56 PM 44.1 °F - 41.0 °F 89% 30.17 in 10.0 mi Calm Calm - 0.00 in Rain Light Rain